EW7084 Weather Reports


time (UTC)temp
F
wind
direction
speed
knots
gust
knots
rain 1hr
in
rain 24hr
in
rain mn
in
humidity
%
barometer
mb
20260509211521 56 157 5.2 13.9 0.00 0.45 0.45 89 1008.8
20260509210016 55 150 4.3 9.6 0.00 0.45 0.45 91 1009.0
20260509204514 54 156 3.5 7.8 0.00 0.45 0.45 91 1009.1
20260509203023 54 156 1.7 7.8 0.02 0.45 0.45 91 1009.3
20260509201510 54 156 1.7 6.1 0.03 0.45 0.45 91 1009.3
20260509200007 53 156 2.6 7.0 0.03 0.45 0.45 91 1009.6
20260509194506 53 157 3.5 8.7 0.04 0.45 0.45 92 1009.7
20260509193004 53 157 0.9 5.2 0.03 0.43 0.43 91 1009.8
20260509191604 53 157 1.7 5.2 0.04 0.42 0.42 91 1009.9
20260509190100 53 157 1.7 5.2 0.06 0.42 0.42 91 1010.1
20260509184601 53 157 2.6 7.0 0.05 0.41 0.41 91 1010.0
20260509183108 53 159 2.6 6.1 0.04 0.40 0.40 91 1010.0
20260509181558 53 158 3.5 7.8 0.02 0.37 0.37 91 1009.9
20260509180154 53 161 1.7 8.7 0.01 0.36 0.36 91 1010.0
20260509174553 53 158 2.6 7.0 0.01 0.36 0.36 90 1009.9
20260509173058 53 160 3.5 6.1 0.01 0.36 0.36 90 1009.9
20260509171550 52 162 3.5 7.8 0.00 0.35 0.35 90 1009.9
20260509170050 52 161 1.7 7.0 0.00 0.35 0.35 91 1009.9
20260509164550 52 161 2.6 8.7 0.01 0.35 0.35 91 1010.0
20260509163050 52 167 3.5 9.6 0.01 0.35 0.35 91 1010.1
20260509161547 52 158 1.7 7.8 0.01 0.35 0.35 91 1010.2
20260509160045 52 163 4.3 10.4 0.01 0.35 0.35 91 1010.3
20260509154545 52 153 4.3 8.7 0.01 0.34 0.34 91 1010.3
20260509153049 52 145 1.7 7.8 0.02 0.34 0.34 91 1010.5
20260509151540 52 158 1.7 5.2 0.03 0.34 0.34 92 1010.8
20260509150040 51 161 2.6 8.7 0.04 0.34 0.34 92 1011.0
20260509144532 51 140 2.6 10.4 0.04 0.33 0.33 92 1011.0
20260509143031 51 167 2.6 7.0 0.03 0.32 0.32 92 1011.2
20260509141530 51 159 2.6 5.2 0.03 0.31 0.31 92 1011.1
20260509140034 51 161 0.9 4.3 0.02 0.30 0.30 92 1011.1
20260509134524 50 161 0.0 2.6 0.02 0.28 0.28 92 1011.1
20260509133023 50 161 0.9 4.3 0.03 0.28 0.28 92 1011.2
20260509131524 50 161 0.0 2.6 0.04 0.28 0.28 92 1011.4
20260509130017 49 161 0.0 1.7 0.05 0.28 0.28 92 1011.5
20260509124514 49 161 0.0 0.9 0.06 0.27 0.27 92 1011.5
20260509123013 49 161 0.0 1.7 0.08 0.26 0.26 91 1011.6
20260509121513 49 161 0.0 2.6 0.07 0.24 0.24 91 1011.7
20260509120005 49 161 0.9 2.6 0.08 0.23 0.23 91 1011.8
20260509114504 48 161 1.7 6.1 0.07 0.21 0.21 91 1011.9
20260509113001 48 132 0.9 3.5 0.07 0.18 0.18 91 1011.8
20260509111600 48 132 0.0 4.3 0.09 0.17 0.17 91 1011.8
20260509110100 48 132 1.7 4.3 0.09 0.15 0.15 91 1011.8
20260509104559 48 130 1.7 6.1 0.08 0.14 0.14 91 1011.6
20260509103103 48 98 0.0 2.6 0.05 0.11 0.11 90 1011.8
20260509101602 48 98 0.9 2.6 0.02 0.08 0.08 90 1011.8
20260509100100 48 98 0.9 3.5 0.00 0.06 0.06 90 1011.7
20260509094556 48 149 2.6 7.0 0.00 0.06 0.06 90 1011.7
20260509093055 48 157 0.9 6.1 0.00 0.06 0.06 90 1011.6
20260509091554 48 157 3.5 6.1 0.00 0.06 0.06 90 1011.5
20260509090056 48 168 0.0 5.2 0.00 0.06 0.06 89 1011.7
20260509084552 48 169 1.7 3.5 0.01 0.06 0.06 89 1011.8
20260509083057 49 169 0.0 3.5 0.01 0.06 0.06 89 1012.0
20260509081549 49 169 0.0 3.5 0.01 0.06 0.06 89 1012.0
20260509080048 49 169 1.7 4.3 0.01 0.06 0.06 88 1012.4
20260509074551 49 170 1.7 4.3 0.01 0.05 0.05 88 1012.4
20260509073044 48 178 1.7 4.3 0.01 0.05 0.05 87 1012.4
20260509071546 47 196 0.0 1.7 0.02 0.05 0.05 85 1012.2
20260509070043 47 196 0.0 0.0 0.02 0.04 0.04 85 1012.3
20260509064540 47 196 0.0 1.7 0.03 0.04 0.04 84 1012.3
20260509063037 47 196 0.9 2.6 0.04 0.04 0.04 83 1012.4
20260509061536 47 196 0.0 0.9 0.03 0.03 0.03 82 1012.8
20260509060038 47 196 0.0 1.7 0.02 0.02 0.02 81 1012.9
20260509054532 46 196 0.0 1.7 0.00 0.00 0.00 81 1013.0
20260509053029 46 196 0.0 1.7 0.00 0.00 0.00 79 1013.0
20260509051528 46 196 0.0 0.9 0.00 0.00 0.00 78 1013.0
20260509050043 46 196 0.0 0.0 0.00 0.00 0.00 77 1012.9
20260509044526 46 196 0.0 1.7 0.00 0.00 0.00 77 1013.0
20260509043126 46 196 0.0 0.9 0.00 0.00 0.00 77 1013.0
20260509041523 45 196 0.9 1.7 0.00 0.00 0.00 77 1013.2
20260509040019 45 196 0.0 1.7 0.00 0.00 0.00 76 1013.3
20260509034519 45 196 0.0 0.0 0.00 0.00 0.00 75 1013.3
20260509033019 45 196 0.0 1.7 0.00 0.00 0.00 75 1013.2
20260509031529 44 196 0.0 0.9 0.00 0.00 0.00 74 1013.2
20260509030019 44 196 0.0 1.7 0.00 0.00 0.00 73 1013.3
20260509024532 45 196 0.0 0.0 0.00 0.00 0.00 73 1013.4
20260509023018 45 196 0.0 0.0 0.00 0.00 0.00 72 1013.3
20260509021518 46 196 0.0 0.0 0.00 0.00 0.00 71 1013.3
20260509020016 47 196 0.0 0.0 0.00 0.00 0.00 70 1013.4
20260509014518 47 196 0.0 1.7 0.00 0.00 0.00 68 1013.3
20260509013024 48 196 0.0 0.0 0.00 0.00 0.00 68 1013.2
20260509011518 50 196 0.0 0.0 0.00 0.00 0.00 64 1013.0
20260509010022 51 196 0.0 0.0 0.00 0.00 0.00 63 1012.9
20260509004514 52 196 0.0 0.0 0.00 0.00 0.00 60 1012.6
20260509003014 53 196 0.0 0.9 0.00 0.00 0.00 59 1012.4
20260509001513 54 196 0.0 0.9 0.00 0.00 0.00 57 1012.3
20260509000015 56 196 0.0 0.9 0.00 0.00 0.00 52 1012.1
20260508234512 57 196 0.0 0.0 0.00 0.00 0.00 51 1012.0
20260508233012 57 196 0.0 1.7 0.00 0.00 0.00 48 1011.7
20260508231611 58 196 0.9 2.6 0.00 0.00 0.00 45 1011.6
20260508230010 58 196 0.0 1.7 0.00 0.00 0.00 43 1011.6
20260508224509 59 196 0.0 3.5 0.00 0.00 0.00 44 1011.6
20260508223019 59 192 0.0 3.5 0.00 0.00 0.00 42 1011.7
20260508221509 59 278 0.0 6.1 0.00 0.00 0.00 42 1011.5
20260508220020 59 293 0.9 7.0 0.00 0.00 0.00 43 1011.7
20260508214507 59 5 1.7 7.0 0.00 0.00 0.00 42 1011.7
20260508213011 60 217 1.7 5.2 0.00 0.00 0.00 41 1011.7